Location: Lane
(33.5226°N, 79.8788°W)
Time: 14:05:25
(UTC+00:00)

Vanguard 1 Rocket - Visible Passes

Search period start: 03 October 2022 00:00
Search period end: 13 October 2022 00:00
Orbit: 651 x 4225 km, 34.3° (Epoch: 02 October)

Date Brightness Start Highest point End Pass type
(mag) Time Alt. Az. Time Alt. Az. Time Alt. Az.
03 Oct 9.7 00:17:27 10° SW 00:40:35 69° SSE 00:48:55 30° E visible
03 Oct 9.4 02:52:01 10° W 03:06:11 59° W 03:06:11 59° W visible
03 Oct 10.4 23:02:25 10° SW 23:26:37 57° SSE 23:41:22 10° ENE visible
04 Oct 9.0 01:35:31 10° WSW 01:56:37 87° SSE 01:58:53 69° E visible
04 Oct 10.5 04:10:28 10° W 04:16:09 25° W 04:16:09 25° W visible
05 Oct 9.7 00:19:13 10° WSW 00:43:04 77° SSE 00:51:32 31° E visible
05 Oct 9.5 02:54:27 10° W 03:08:48 58° W 03:08:48 58° W visible
05 Oct 10.3 23:03:46 10° SW 23:28:55 65° SSE 23:44:10 10° ENE visible
06 Oct 9.1 01:37:47 10° W 01:59:16 89° N 02:01:25 71° E visible
06 Oct 10.5 04:12:55 10° W 04:18:41 25° W 04:18:41 25° W visible
07 Oct 9.7 00:21:12 10° WSW 00:45:33 83° SSE 00:54:01 33° E visible
07 Oct 9.6 02:56:52 10° W 03:11:17 57° W 03:11:17 57° W visible
07 Oct 10.3 23:05:24 10° SW 23:31:13 73° SSE 23:46:36 12° ENE visible
08 Oct 9.1 01:40:07 10° W 02:01:56 87° N 02:03:52 73° ENE visible
08 Oct 10.6 04:15:19 10° WNW 04:21:07 25° W 04:21:07 25° W visible
09 Oct 9.7 00:23:21 10° WSW 00:48:05 88° S 00:56:25 35° E visible
09 Oct 9.7 02:59:16 10° W 03:13:41 56° W 03:13:41 56° W visible
09 Oct 10.3 23:07:17 10° WSW 23:33:32 80° SSE 23:48:58 13° ENE visible
10 Oct 9.2 01:42:30 10° W 02:04:37 87° N 02:06:13 77° E visible
10 Oct 10.7 04:17:43 10° WNW 04:23:28 24° W 04:23:28 24° W visible
11 Oct 9.7 00:25:39 10° W 00:50:39 89° N 00:58:45 38° E visible
11 Oct 9.8 03:01:37 10° W 03:16:00 54° W 03:16:00 54° W visible
11 Oct 10.4 23:09:22 10° WSW 23:35:54 85° SSE 23:51:17 15° E visible
12 Oct 9.2 01:44:53 10° W 02:07:18 89° N 02:08:32 80° E visible
12 Oct 10.7 04:20:08 10° WNW 04:25:47 23° W 04:25:47 23° W visible
